Weather in Konstantinovka

Russia / Khabarovsk Krai     53°04′48″N   140°46′50″E
temp.,
°C
wind,
m/s
gust,
m/s
humid.,
%
clouds,
%
prec.,
mm/h
press.,
hPa
HPBL,
m
27 february, sat
sat2701:00−21w229988 0.0 102827
04:00−23w229644 0.0 102823
07:00−23w22920 0.0 102722
10:00−16wnw12850 0.0 1028149
13:00−10nw23770 0.0 1027526
16:00−9nnw138227 0.0 1024641
19:00−16ese1197100 0.0 102420
22:00−17se129799 0.0 102222
28 february, sun
sun2801:00−17ese2398100 0.0 101887
04:00−16e2298100 0.5 101390
07:00−14e1198100 0.9 101136
10:00−12wnw3693100 1.1 1010428
13:00−11wnw488693 0.1 1010840
16:00−12wnw698996 0.3 1011889
19:00−17wnw51191100 0.1 1014606
22:00−21w31194100 0.1 1015422
1 march, mon
mon101:00−22w3109598 0.0 1015406
04:00−21w3109699 0.1 1017437
07:00−20w31096100 0.1 1018510
10:00−19wnw61279100 0.3 1020703
13:00−18wnw71178100 0.0 1021974
16:00−18wnw7127976 0.0 10211142
19:00−23w23915 0.0 102342
22:00−24wsw229548 0.0 102320
2 march, tue
tue201:00−25wsw239151 0.0 102368
04:00−26wsw238629 0.0 102454
07:00−28ssw228422 0.0 102625
10:00−21wsw588428 0.0 1026845
13:00−20w357450 0.0 1026944
16:00−19w467344 0.0 10261362
19:00−24wsw2385100 0.0 102737
22:00−26sw228851 0.0 102721
3 march, wed
wed301:00−27wsw228722 0.0 102620
04:00−28sw228511 0.0 102520
07:00−29wsw22840 0.0 102521
10:00−22w23770 0.0 1024248
13:00−17wnw48610 0.0 1021961
16:00−15w36650 0.0 1019717
19:00−22s11870 0.0 101720
22:00−23s12912 0.0 101621